[[{"header":{"parameterUnit":"m.s-1","parameterCategory":1,"la1":30.2992,"la2":30.254,"lo1":-89.0895,"lo2":-89.0443,"dy":0.0025,"dx":0.0025,"nx":19,"ny":19,"refTime":"2026-04-09T09:00:00:Z","depth":0,"parameterNumber":2,"parameterNumberName":"U-component_of_WINDS"},"data":[0,0,0,-7.2697,-7.2703,-7.2924,-7.2924,-7.3266,-7.327,0,0,0,0,0,0,0,0,0,0,0,-7.2669,-7.2672,-7.2697,-7.2704,-7.2924,-7.2924,-7.3266,-7.327,0,0,0,0,0,0,0,0,0,0,0,-7.2667,-7.2671,-7.2676,-7.2704,-7.2924,-7.2924,-7.3265,-7.3077,0,0,0,0,0,0,0,0,0,0,-7.2852,-7.2862,-7.267,-7.2676,-7.2706,-7.2924,-7.2925,-7.3067,-7.3089,-7.3192,0,-7.3294,0,-7.3288,-7.3297,-7.3298,0,0,0,-7.2676,-7.2844,-7.287,-7.2676,-7.2708,-7.2923,-7.2817,-7.3078,-7.3103,-7.3221,-7.3298,-7.3309,-7.3294,-7.3299,-7.3301,-7.3989,-7.3993,0,0,-7.2664,-7.2728,-7.2854,-7.2888,-7.2858,-7.281,-7.2824,-7.3092,-7.3181,-7.3299,-7.3316,-7.3299,-7.3302,-7.3305,-7.3984,-7.399,0,0,0,-7.2647,-7.2721,-7.2739,-7.2876,-7.2911,-7.2817,-7.2833,-7.3168,-7.3169,-7.3319,-7.3303,-7.3304,-7.3309,-7.3979,-7.3986,-7.4272,0,0,0,-7.2639,-7.2711,-7.2735,-7.2777,-7.2907,-7.3043,-7.2904,-7.315,-7.3179,-7.3301,-7.3304,-7.3313,-7.3974,-7.3983,-7.4253,-7.4396,0,0,0,-7.2642,-7.2711,-7.2755,-7.278,-7.2877,-7.3037,-7.3052,-7.3155,-7.3171,-7.3298,-7.3314,-7.3971,-7.3982,-7.4236,-7.4368,-7.4596,0,0,0,-7.2663,-7.3006,-7.2761,-7.3136,-7.2876,-7.3211,-7.3049,-7.3296,-7.344,-7.3306,-7.3975,-7.3986,-7.4231,-7.4352,-7.4579,-7.48,-7.4898,0,0,-7.3131,-7.3064,-7.328,-7.3067,-7.3463,-7.3172,-7.361,-7.368,-7.3634,-7.3873,-7.3889,-7.4259,-7.4367,-7.4593,-7.5423,-7.5501,0,0,0,-7.345,-7.3606,-7.3697,-7.3837,-7.3899,-7.3964,-7.396,-7.3986,-7.4186,-7.377,-7.44,-7.4462,-7.4592,-7.4695,-7.4762,-7.4869,-7.4036,-7.4035,-7.4033,-7.4205,-7.4126,-7.4478,-7.4427,-7.4564,-7.4557,-7.4661,-7.4695,-7.4575,-7.4726,-7.4797,-7.5311,-7.5433,-7.5483,-7.5596,-7.4906,-7.4907,-7.4908,-7.4909,-7.4883,-7.5092,-7.4924,-7.5206,-7.5121,-7.5356,-7.5363,-7.527,-7.5477,-7.525,-7.5361,-7.5122,-7.5571,-7.5666,-7.493,-7.4926,-7.4924,-7.4922,-7.492,-7.5369,-7.5456,-7.5481,-7.5675,-7.5833,-7.5768,-7.5975,-7.5889,-7.581,-7.5919,-7.5985,-7.598,-7.5965,-7.5956,-7.5958,-7.596,-7.5962,-7.5963,-7.5964,-7.5864,-7.5884,-7.6068,-7.6163,-7.6241,-7.6333,-7.6329,-7.6404,-7.6465,-7.6386,-7.6386,-7.6253,-7.563,-7.5475,-7.5991,-7.5987,-7.5983,-7.598,-7.5979,-7.6583,-7.6407,-7.6692,-7.6771,-7.6874,-7.7038,-7.6925,-7.7085,-7.7134,-7.7239,-7.7081,-7.6634,-7.6559,-7.6506,-7.6378,-7.7096,-7.7096,-7.7096,-7.7096,-7.6995,-7.6948,-7.722,-7.7352,-7.747,-7.7398,-7.7723,-7.7724,-7.7696,-7.7721,-7.7604,-7.7427,-7.7376,-7.7331,-7.726,-7.7139,-7.8035,-7.8036,-7.8037,-7.7432,-7.7393,-7.7687,-7.7657,-7.7731,-7.7798,-7.8101,-7.8258,-7.819,-7.8073,-7.774,-7.77,-7.7412,-7.7322,-7.72,-7.7091,-7.6867,0,0]},{"header":{"parameterUnit":"m.s-1","parameterCategory":1,"la1":30.2992,"la2":30.254,"lo1":-89.0895,"lo2":-89.0443,"dy":0.0025,"dx":0.0025,"nx":19,"ny":19,"refTime":"2026-04-09T09:00:00:Z","depth":0,"parameterNumber":3,"parameterNumberName":"V-component_of_WINDS"},"data":[0,0,0,-1.7957,-1.7955,-1.787,-1.787,-1.7765,-1.7764,0,0,0,0,0,0,0,0,0,0,0,-1.7989,-1.7988,-1.7957,-1.7955,-1.787,-1.787,-1.7765,-1.7764,0,0,0,0,0,0,0,0,0,0,0,-1.7989,-1.7988,-1.7988,-1.7955,-1.787,-1.787,-1.7765,-1.7827,0,0,0,0,0,0,0,0,0,0,-1.7908,-1.7945,-1.7988,-1.7988,-1.7954,-1.787,-1.787,-1.783,-1.7823,-1.7806,0,-1.7797,0,-1.7779,-1.7757,-1.7757,0,0,0,-1.7949,-1.7951,-1.7922,-1.7988,-1.7954,-1.7871,-1.7907,-1.7826,-1.7818,-1.7797,-1.7795,-1.7791,-1.7777,-1.7757,-1.7756,-1.7687,-1.7686,0,0,-1.7954,-1.7976,-1.7928,-1.7918,-1.7936,-1.791,-1.7904,-1.7821,-1.7819,-1.7795,-1.7788,-1.7775,-1.7756,-1.7755,-1.7687,-1.7687,0,0,0,-1.7971,-1.798,-1.7953,-1.7923,-1.7907,-1.7907,-1.7901,-1.7822,-1.7812,-1.7787,-1.7774,-1.7756,-1.7754,-1.7687,-1.7687,-1.7707,0,0,0,-1.7974,-1.799,-1.7955,-1.7968,-1.7909,-1.7865,-1.7905,-1.7818,-1.7808,-1.7775,-1.7756,-1.7753,-1.7687,-1.7687,-1.7706,-1.7712,0,0,0,-1.7992,-1.7992,-1.7982,-1.7969,-1.7934,-1.7866,-1.785,-1.7815,-1.78,-1.7757,-1.7753,-1.7687,-1.7687,-1.7706,-1.7711,-1.7699,0,0,0,-1.8016,-1.8,-1.7983,-1.7959,-1.7935,-1.788,-1.785,-1.7808,-1.7773,-1.7755,-1.7687,-1.7687,-1.7706,-1.7711,-1.7699,-1.7693,-1.7693,0,0,-1.8008,-1.8,-1.7984,-1.7966,-1.7921,-1.7891,-1.7846,-1.7792,-1.7766,-1.7713,-1.7711,-1.7706,-1.7711,-1.7699,-1.7687,-1.7687,0,0,0,-1.7989,-1.7978,-1.7961,-1.7931,-1.7891,-1.7855,-1.7807,-1.7786,-1.774,-1.7745,-1.7698,-1.77,-1.7692,-1.7688,-1.7689,-1.7679,-1.7686,-1.7686,-1.7686,-1.8009,-1.7978,-1.7949,-1.7908,-1.7878,-1.7827,-1.7799,-1.7761,-1.7738,-1.7727,-1.7711,-1.7708,-1.7704,-1.7704,-1.7695,-1.7706,-1.7706,-1.7706,-1.7706,-1.7993,-1.7972,-1.7941,-1.7903,-1.7868,-1.7833,-1.7782,-1.7766,-1.7725,-1.7718,-1.7709,-1.7703,-1.7706,-1.7696,-1.7707,-1.7707,-1.7707,-1.7707,-1.7707,-1.8003,-1.7987,-1.7964,-1.7916,-1.788,-1.7837,-1.78,-1.777,-1.774,-1.7732,-1.771,-1.771,-1.7704,-1.7724,-1.7724,-1.7724,-1.7724,-1.7724,-1.7724,-1.8021,-1.7994,-1.7969,-1.7925,-1.79,-1.7863,-1.781,-1.7783,-1.7745,-1.7725,-1.7724,-1.77,-1.7713,-1.7716,-1.7723,-1.7723,-1.7723,-1.7723,-1.7723,-1.8016,-1.8012,-1.7974,-1.7949,-1.7892,-1.7858,-1.7819,-1.7767,-1.774,-1.7722,-1.7699,-1.7714,-1.7702,-1.7702,-1.7704,-1.7708,-1.7708,-1.7708,-1.7708,-1.8024,-1.8015,-1.7968,-1.793,-1.7889,-1.785,-1.7802,-1.7759,-1.7712,-1.7693,-1.7687,-1.7688,-1.7689,-1.7677,-1.7677,-1.7678,-1.7675,-1.7675,-1.7675,-1.8018,-1.8004,-1.7972,-1.793,-1.7882,-1.7841,-1.7794,-1.7748,-1.7694,-1.7673,-1.7676,-1.7677,-1.7678,-1.768,-1.766,-1.7661,-1.7663,0,0]}]]